FW5461 Weather Reports


Display with metric or nautical units.
time (UTC)temp
F
wind
direction
speed
MPH
gust
MPH
rain 1hr
in
rain 24hr
in
rain mn
in
humidity
%
barometer
mb
20210415133228 47 121 1.0 2.0 0.00 0.00 0.00 85 1011.6
20210415132321 47 119 0.0 3.0 0.00 0.00 0.00 85 1011.5
20210415131104 47 113 0.0 3.0 0.00 0.00 0.00 85 1011.6
20210415130558 47 117 1.0 5.0 0.00 0.00 0.00 85 1011.5
20210415130107 47 71 1.0 5.0 0.00 0.00 0.00 86 1011.5
20210415124953 47 109 1.0 3.0 0.00 0.00 0.00 85 1011.7
20210415124100 47 102 0.0 3.0 0.00 0.00 0.00 86 1011.8
20210415123629 47 107 1.0 3.0 0.00 0.00 0.00 86 1011.8
20210415121714 47 65 0.0 4.0 0.00 0.00 0.00 86 1011.9
20210415121101 47 69 1.0 3.0 0.00 0.00 0.00 87 1012.0
20210415120557 47 65 0.0 3.0 0.00 0.00 0.00 88 1012.0
20210415115857 46 63 1.0 3.0 0.00 0.00 0.00 88 1012.0
20210415114556 46 64 1.0 3.0 0.00 0.00 0.00 87 1012.1
20210415114039 46 64 1.0 3.0 0.00 0.00 0.00 88 1012.3
20210415113551 46 64 0.0 2.0 0.00 0.00 0.00 88 1012.3
20210415113440 46 64 0.0 2.0 0.00 0.00 0.00 88 1012.4
20210415113034 46 64 0.0 2.0 0.00 0.00 0.00 88 1012.3
20210415111551 46 64 0.0 3.0 0.00 0.00 0.00 88 1012.3
20210415111117 46 64 0.0 3.0 0.00 0.00 0.00 88 1012.3
20210415110525 46 64 1.0 2.0 0.00 0.00 0.00 88 1012.3
20210415110035 46 64 0.0 2.0 0.00 0.00 0.00 88 1012.3
20210415105845 46 64 1.0 2.0 0.00 0.00 0.00 87 1012.3
20210415104632 46 64 0.0 2.0 0.00 0.00 0.00 88 1012.2
20210415104039 46 64 0.0 2.0 0.00 0.00 0.00 87 1012.2
20210415103449 46 64 0.0 3.0 0.00 0.00 0.00 87 1012.2
20210415102047 46 64 1.0 3.0 0.00 0.00 0.00 87 1012.3
20210415101541 46 64 1.0 3.0 0.00 0.00 0.00 87 1012.4
20210415101037 46 64 1.0 5.0 0.00 0.00 0.00 86 1012.3
20210415100545 46 48 2.0 5.0 0.00 0.00 0.00 86 1012.4
20210415095948 46 65 1.0 5.0 0.00 0.00 0.00 85 1012.3
20210415094647 46 63 3.0 5.0 0.00 0.00 0.00 84 1012.4
20210415094044 47 87 1.0 3.0 0.00 0.00 0.00 84 1012.5
20210415093157 46 113 0.0 4.0 0.00 0.00 0.00 84 1012.6
20210415092707 47 123 1.0 4.0 0.00 0.00 0.00 84 1012.7
20210415091047 47 92 1.0 7.0 0.00 0.00 0.00 84 1012.7
20210415090548 46 53 3.0 7.0 0.00 0.00 0.00 84 1012.7
20210415090043 47 87 2.0 8.0 0.00 0.00 0.00 84 1012.7
20210415085836 47 110 2.0 8.0 0.00 0.00 0.00 84 1012.8
20210415084541 47 108 2.0 8.0 0.00 0.00 0.00 84 1012.9
20210415084036 47 105 2.0 8.0 0.00 0.00 0.00 83 1012.9
20210415083641 47 98 3.0 7.0 0.00 0.00 0.00 83 1012.8
20210415083328 47 49 4.0 7.0 0.00 0.00 0.00 83 1012.9
20210415083045 47 76 2.0 5.0 0.00 0.00 0.00 83 1012.9
20210415082635 47 88 1.0 4.0 0.00 0.00 0.00 83 1013.0
20210415081526 47 116 1.0 5.0 0.00 0.00 0.00 84 1012.9
20210415081031 47 93 0.0 7.0 0.00 0.00 0.00 84 1013.0
20210415074634 47 181 2.0 6.0 0.00 0.00 0.00 83 1013.2
20210415074108 47 122 1.0 6.0 0.00 0.00 0.00 83 1013.2
20210415073607 47 114 1.0 6.0 0.00 0.00 0.00 83 1013.2
20210415073136 47 119 3.0 6.0 0.00 0.00 0.00 83 1013.3
20210415072914 47 197 3.0 6.0 0.00 0.00 0.00 82 1013.2
20210415072655 47 105 1.0 6.0 0.00 0.00 0.00 82 1013.3
20210415071433 47 127 1.0 7.0 0.00 0.00 0.00 82 1013.3
20210415070852 47 134 2.0 7.0 0.00 0.00 0.00 82 1013.2
20210415070257 47 202 2.0 7.0 0.00 0.00 0.00 82 1013.3
20210415065942 48 227 2.0 7.0 0.00 0.00 0.00 82 1013.3
20210415065516 48 133 2.0 6.0 0.00 0.00 0.00 82 1013.2
20210415064618 48 131 1.0 8.0 0.00 0.00 0.00 82 1013.3
20210415064052 48 110 1.0 8.0 0.00 0.00 0.00 82 1013.3
20210415063555 48 123 1.0 4.0 0.00 0.00 0.00 82 1013.4
20210415063312 48 172 1.0 6.0 0.00 0.00 0.00 82 1013.4
20210415063022 48 64 2.0 6.0 0.00 0.00 0.00 82 1013.4
20210415062457 48 117 2.0 6.0 0.00 0.00 0.00 82 1013.6
20210415061724 48 93 2.0 7.0 0.00 0.00 0.00 81 1013.5
20210415061105 48 116 2.0 7.0 0.00 0.00 0.00 81 1013.5
20210415060551 48 86 2.0 7.0 0.00 0.00 0.00 81 1013.5
20210415060149 48 112 3.0 7.0 0.00 0.00 0.00 81 1013.6
20210415055834 48 114 1.0 7.0 0.00 0.00 0.00 81 1013.6
20210415055349 48 155 2.0 7.0 0.00 0.00 0.00 81 1013.7
20210415054601 49 128 2.0 6.0 0.00 0.00 0.00 81 1013.7
20210415054105 49 123 2.0 6.0 0.00 0.00 0.00 80 1013.7
20210415053616 49 120 0.0 3.0 0.00 0.00 0.00 80 1013.7
20210415053215 49 120 1.0 6.0 0.00 0.00 0.00 80 1013.7
20210415052850 49 89 1.0 7.0 0.00 0.00 0.00 80 1013.7
20210415052539 49 131 3.0 7.0 0.00 0.00 0.00 80 1013.9
20210415051555 49 146 2.0 6.0 0.00 0.00 0.00 79 1013.9
20210415051045 49 146 2.0 7.0 0.00 0.00 0.00 79 1013.9
20210415050647 49 123 2.0 7.0 0.00 0.00 0.00 79 1014.0
20210415050131 49 132 1.0 6.0 0.00 0.00 0.00 79 1013.9
20210415045849 49 129 1.0 7.0 0.00 0.00 0.00 79 1013.9
20210415045420 50 128 3.0 8.0 0.00 0.00 0.00 78 1013.9
20210415044705 50 145 3.0 8.0 0.00 0.00 0.00 78 1013.9
20210415044118 50 123 2.0 5.0 0.00 0.00 0.00 78 1014.0
20210415043538 50 111 1.0 7.0 0.00 0.00 0.00 77 1014.0
20210415043051 50 121 1.0 7.0 0.00 0.00 0.00 77 1014.0
20210415042648 50 159 1.0 7.0 0.00 0.00 0.00 77 1014.1
20210415041629 50 121 2.0 7.0 0.00 0.00 0.00 76 1014.2
20210415041054 50 117 3.0 7.0 0.00 0.00 0.00 76 1014.2
20210415040535 51 128 2.0 6.0 0.00 0.00 0.00 76 1014.2
20210415040104 51 115 2.0 6.0 0.00 0.00 0.00 75 1014.3
20210415035424 51 360 2.0 5.0 0.00 0.00 0.00 75 1014.3
20210415034534 51 163 1.0 4.0 0.00 0.00 0.00 75 1014.2
20210415034042 51 138 1.0 4.0 0.00 0.00 0.00 74 1014.3
20210415033532 52 180 0.0 2.0 0.00 0.00 0.00 74 1014.3
20210415033124 52 179 0.0 2.0 0.00 0.00 0.00 73 1014.3
20210415032759 52 178 0.0 4.0 0.00 0.00 0.00 73 1014.3
20210415032336 52 178 1.0 4.0 0.00 0.00 0.00 73 1014.3
20210415031530 53 176 2.0 7.0 0.00 0.00 0.00 73 1014.3
20210415031027 53 189 4.0 7.0 0.00 0.00 0.00 72 1014.3
20210415030528 53 184 3.0 7.0 0.00 0.00 0.00 72 1014.4
20210415030100 53 174 4.0 7.0 0.00 0.00 0.00 72 1014.4
20210415025639 53 167 2.0 5.0 0.00 0.00 0.00 71 1014.4
20210415024600 53 217 2.0 5.0 0.00 0.00 0.00 70 1014.4
20210415024041 53 173 3.0 6.0 0.00 0.00 0.00 70 1014.5
20210415023545 54 178 2.0 7.0 0.00 0.00 0.00 70 1014.5
20210415023052 54 181 1.0 7.0 0.00 0.00 0.00 70 1014.5
20210415022740 54 183 2.0 7.0 0.00 0.00 0.00 69 1014.6
20210415022245 54 182 3.0 7.0 0.00 0.00 0.00 69 1014.5
20210415021615 54 198 3.0 7.0 0.00 0.00 0.00 69 1014.6
20210415021032 54 162 3.0 10.0 0.00 0.00 0.00 69 1014.4
20210415020611 54 188 5.0 10.0 0.00 0.00 0.00 68 1014.5
20210415020224 55 161 5.0 11.0 0.00 0.00 0.00 68 1014.5
20210415015855 55 163 7.0 11.0 0.00 0.00 0.00 67 1014.5
20210415014630 55 177 6.0 13.0 0.00 0.00 0.00 67 1014.6
20210415014053 55 171 8.0 13.0 0.00 0.00 0.00 67 1014.7
20210415013619 55 165 4.0 10.0 0.00 0.00 0.00 67 1014.7
20210415013119 56 198 6.0 12.0 0.00 0.00 0.00 66 1014.9
20210415011609 56 200 8.0 14.0 0.00 0.00 0.00 66 1014.7
20210415011032 56 158 7.0 14.0 0.00 0.00 0.00 66 1014.7
20210415010608 57 189 6.0 10.0 0.00 0.00 0.00 66 1014.6
20210415010116 57 202 5.0 15.0 0.00 0.00 0.00 66 1014.6
20210415005642 57 176 6.0 14.0 0.00 0.00 0.00 65 1014.5
20210415004625 58 172 7.0 13.0 0.00 0.00 0.00 65 1014.5
20210415004043 58 196 7.0 13.0 0.00 0.00 0.00 64 1014.5
20210415003524 58 179 4.0 10.0 0.00 0.00 0.00 64 1014.5
20210415003037 59 170 6.0 12.0 0.00 0.00 0.00 62 1014.1
20210415001940 59 173 6.0 12.0 0.00 0.00 0.00 62 1014.2
20210415001234 59 178 6.0 12.0 0.00 0.00 0.00 61 1014.0
20210415000936 59 233 4.0 10.0 0.00 0.00 0.00 60 1014.0
20210415000629 60 204 4.0 11.0 0.00 0.00 0.00 59 1013.8
20210415000106 60 194 6.0 11.0 0.00 0.00 0.00 59 1013.7
20210414235840 60 208 4.0 10.0 0.00 0.00 0.00 58 1013.6
20210414234546 60 148 5.0 12.0 0.00 0.00 0.00 58 1013.7
20210414234247 61 121 7.0 12.0 0.00 0.00 0.00 57 1013.5
20210414233530 61 167 5.0 9.0 0.00 0.00 0.00 57 1013.5
20210414233158 61 175 4.0 9.0 0.00 0.00 0.00 56 1013.5
20210414232850 61 126 4.0 8.0 0.00 0.00 0.00 55 1013.5
20210414232301 62 168 3.0 8.0 0.00 0.00 0.00 55 1013.5
20210414231541 62 173 4.0 8.0 0.00 0.00 0.00 55 1013.5
20210414230530 62 171 4.0 12.0 0.00 0.00 0.00 53 1013.6
20210414230128 63 134 4.0 11.0 0.00 0.00 0.00 53 1013.6
20210414225907 63 123 4.0 12.0 0.00 0.00 0.00 53 1013.6
20210414225359 63 150 3.0 11.0 0.00 0.00 0.00 52 1013.6
20210414224536 64 136 2.0 11.0 0.00 0.00 0.00 52 1013.6
20210414224027 64 166 4.0 9.0 0.00 0.00 0.00 51 1013.6
20210414223524 64 130 5.0 11.0 0.00 0.00 0.00 50 1013.6
20210414223052 64 180 4.0 12.0 0.00 0.00 0.00 50 1013.6
20210414222837 65 153 7.0 12.0 0.00 0.00 0.00 48 1013.7
20210414222220 65 147 5.0 12.0 0.00 0.00 0.00 48 1013.6
20210414221535 65 182 5.0 11.0 0.00 0.00 0.00 48 1013.6
20210414221027 66 146 5.0 10.0 0.00 0.00 0.00 47 1013.5
20210414220527 66 191 4.0 10.0 0.00 0.00 0.00 47 1013.5
20210414220045 66 147 7.0 10.0 0.00 0.00 0.00 46 1013.5
20210414215828 66 184 6.0 12.0 0.00 0.00 0.00 47 1013.6
20210414215130 66 150 4.0 14.0 0.00 0.00 0.00 46 1013.6
20210414214522 66 125 5.0 14.0 0.00 0.00 0.00 46 1013.6
20210414214030 67 134 9.0 14.0 0.00 0.00 0.00 45 1013.6
20210414213541 67 159 6.0 14.0 0.00 0.00 0.00 46 1013.6
20210414213107 67 163 7.0 14.0 0.00 0.00 0.00 45 1013.5
20210414212951 68 105 4.0 11.0 0.00 0.00 0.00 46 1013.5
20210414212642 68 144 4.0 11.0 0.00 0.00 0.00 45 1013.5
20210414211527 69 194 6.0 12.0 0.00 0.00 0.00 45 1013.6
20210414211039 68 190 6.0 12.0 0.00 0.00 0.00 43 1013.6
20210414210513 69 169 4.0 8.0 0.00 0.00 0.00 40 1013.6
20210414210031 69 141 1.0 5.0 0.00 0.00 0.00 40 1013.7
20210414205141 69 144 2.0 5.0 0.00 0.00 0.00 41 1013.7
20210414204535 68 109 1.0 8.0 0.00 0.00 0.00 41 1013.8
20210414204020 68 113 0.0 8.0 0.00 0.00 0.00 42 1013.9
20210414203515 68 112 4.0 9.0 0.00 0.00 0.00 41 1013.9
20210414203102 68 93 2.0 9.0 0.00 0.00 0.00 42 1014.0
20210414202936 68 107 2.0 8.0 0.00 0.00 0.00 43 1014.1
20210414202440 68 133 2.0 8.0 0.00 0.00 0.00 42 1014.1
20210414201546 68 108 1.0 8.0 0.00 0.00 0.00 43 1014.2
20210414201023 67 113 3.0 8.0 0.00 0.00 0.00 43 1014.2
20210414200514 68 126 3.0 6.0 0.00 0.00 0.00 43 1014.2
20210414200034 68 107 4.0 7.0 0.00 0.00 0.00 44 1014.4
20210414195842 68 151 1.0 5.0 0.00 0.00 0.00 45 1014.4
20210414195043 68 142 1.0 5.0 0.00 0.00 0.00 44 1014.4
20210414194524 67 179 2.0 6.0 0.00 0.00 0.00 44 1014.5
20210414194023 67 172 2.0 6.0 0.00 0.00 0.00 44 1014.6
20210414193604 68 98 2.0 7.0 0.00 0.00 0.00 43 1014.7
20210414193238 67 109 1.0 7.0 0.00 0.00 0.00 44 1014.8
20210414192914 68 193 1.0 5.0 0.00 0.00 0.00 44 1014.7
20210414192322 67 131 0.0 5.0 0.00 0.00 0.00 44 1014.8
20210414191709 67 183 2.0 5.0 0.00 0.00 0.00 43 1014.8
20210414191058 68 103 2.0 6.0 0.00 0.00 0.00 43 1014.8
20210414190607 68 127 0.0 3.0 0.00 0.00 0.00 44 1014.9
20210414190220 67 133 0.0 2.0 0.00 0.00 0.00 44 1015.1
20210414185924 68 140 1.0 3.0 0.00 0.00 0.00 44 1015.1
20210414185455 67 172 1.0 6.0 0.00 0.00 0.00 44 1015.2
20210414184707 67 149 1.0 7.0 0.00 0.00 0.00 44 1015.1
20210414184058 67 41 5.0 7.0 0.00 0.00 0.00 44 1015.2
20210414183651 68 53 4.0 8.0 0.00 0.00 0.00 45 1015.3
20210414183216 68 21 2.0 8.0 0.00 0.00 0.00 43 1015.5
20210414182952 68 30 2.0 7.0 0.00 0.00 0.00 43 1015.4
20210414182541 68 111 5.0 9.0 0.00 0.00 0.00 43 1015.6
20210414181646 69 40 4.0 9.0 0.00 0.00 0.00 43 1015.6
20210414181142 70 81 2.0 9.0 0.00 0.00 0.00 42 1015.6
20210414180632 71 51 2.0 9.0 0.00 0.00 0.00 42 1015.7
20210414180313 70 26 3.0 9.0 0.00 0.00 0.00 42 1015.8
20210414175929 70 95 3.0 9.0 0.00 0.00 0.00 42 1015.8
20210414175646 70 178 2.0 6.0 0.00 0.00 0.00 43 1016.0
20210414174619 69 29 2.0 9.0 0.00 0.00 0.00 44 1016.2
20210414174052 70 165 2.0 12.0 0.00 0.00 0.00 45 1016.3
20210414173559 68 54 8.0 12.0 0.00 0.00 0.00 46 1016.4
20210414173131 68 93 4.0 8.0 0.00 0.00 0.00 46 1016.4
20210414172840 67 117 2.0 9.0 0.00 0.00 0.00 47 1016.5
20210414172450 67 62 2.0 9.0 0.00 0.00 0.00 46 1016.6
20210414171632 67 78 3.0 9.0 0.00 0.00 0.00 47 1016.7
20210414171052 67 54 4.0 9.0 0.00 0.00 0.00 48 1016.8
20210414170701 67 50 3.0 10.0 0.00 0.00 0.00 48 1016.8
20210414170343 65 187 4.0 10.0 0.00 0.00 0.00 50 1016.9
20210414170029 66 115 4.0 8.0 0.00 0.00 0.00 50 1017.1
20210414165522 65 156 2.0 9.0 0.00 0.00 0.00 50 1017.2
20210414164626 66 45 3.0 8.0 0.00 0.00 0.00 50 1017.3
20210414164034 66 93 3.0 8.0 0.00 0.00 0.00 50 1017.3
20210414163551 66 77 2.0 10.0 0.00 0.00 0.00 51 1017.3
20210414163154 65 145 1.0 15.0 0.00 0.00 0.00 50 1017.5
20210414163025 65 291 5.0 15.0 0.00 0.00 0.00 52 1017.6
20210414162517 64 160 2.0 6.0 0.00 0.00 0.00 53 1017.6
20210414161610 63 104 0.0 9.0 0.00 0.00 0.00 54 1017.8
20210414161028 63 38 5.0 10.0 0.00 0.00 0.00 54 1017.8
20210414160526 63 150 5.0 10.0 0.00 0.00 0.00 54 1017.9
20210414160156 63 117 2.0 9.0 0.00 0.00 0.00 55 1017.8
20210414155900 62 123 4.0 9.0 0.00 0.00 0.00 55 1017.9
20210414155346 61 79 3.0 8.0 0.00 0.00 0.00 57 1018.0
20210414154529 62 103 3.0 8.0 0.00 0.00 0.00 57 1018.2
20210414154028 62 74 3.0 8.0 0.00 0.00 0.00 57 1018.3
20210414153519 62 26 3.0 8.0 0.00 0.00 0.00 57 1018.4
20210414153150 60 131 3.0 8.0 0.00 0.00 0.00 58 1018.4
20210414152921 60 54 3.0 6.0 0.00 0.00 0.00 57 1018.6
20210414152230 61 26 2.0 7.0 0.00 0.00 0.00 57 1018.6
20210414151540 60 108 2.0 7.0 0.00 0.00 0.00 60 1018.8
20210414151026 59 77 2.0 5.0 0.00 0.00 0.00 60 1018.8
20210414150518 58 40 2.0 6.0 0.00 0.00 0.00 61 1018.9
20210414150107 58 241 1.0 6.0 0.00 0.00 0.00 61 1018.9
20210414145903 58 9 1.0 5.0 0.00 0.00 0.00 63 1019.0
20210414145420 57 37 1.0 5.0 0.00 0.00 0.00 64 1019.1
20210414144531 57 39 2.0 6.0 0.00 0.00 0.00 63 1019.1
20210414144022 56 24 1.0 8.0 0.00 0.00 0.00 64 1019.2
20210414143506 56 61 3.0 8.0 0.00 0.00 0.00 65 1019.2
20210414143034 54 22 2.0 7.0 0.00 0.00 0.00 67 1019.4
20210414142829 55 58 3.0 6.0 0.00 0.00 0.00 66 1019.5
20210414142324 54 29 3.0 5.0 0.00 0.00 0.00 67 1019.5
20210414141512 55 51 2.0 7.0 0.00 0.00 0.00 68 1019.5
20210414141034 55 132 3.0 7.0 0.00 0.00 0.00 66 1019.7
20210414140521 54 101 1.0 6.0 0.00 0.00 0.00 69 1019.7
20210414140104 54 93 1.0 8.0 0.00 0.00 0.00 68 1019.8
20210414135954 53 128 3.0 8.0 0.00 0.00 0.00 70 1019.7
20210414135657 54 27 1.0 5.0 0.00 0.00 0.00 69 1019.7
20210414134510 52 88 2.0 5.0 0.00 0.00 0.00 71 1019.8
20210414134108 53 44 2.0 6.0 0.00 0.00 0.00 70 1019.8
20210414133612 52 85 1.0 4.0 0.00 0.00 0.00 72 1019.8
20210414133419 53 85 1.0 6.0 0.00 0.00 0.00 71 1019.8